[[{"header":{"parameterUnit":"m.s-1","parameterCategory":1,"la1":30.2991,"la2":30.254,"lo1":-89.0895,"lo2":-89.0444,"dy":0.0017,"dx":0.0017,"nx":28,"ny":28,"refTime":"2024-08-15T09:00:00:Z","depth":0,"parameterNumber":2,"parameterNumberName":"U-component_of_WINDS"},"data":[0,0,0,0,0,0,0,0,0,0,0,0,0,0,0,0,0,0,0,0,0,0,0,0,0,0,0,0,0,0,0,0,0,0,0,0,0,0,0,0,0,0,0,0,0,0,0,0,0,0,0,0,0,0,0,0,0,0,-0.9124,-0.9123,0,-0.9058,-0.9057,-0.9056,-0.9006,-0.9006,-0.9006,-0.9005,-0.8935,-0.8933,-0.8932,0,0,0,0,0,0,0,0,0,0,0,0,0,-0.9204,-0.9203,-0.9124,-0.9123,-0.9122,-0.9058,-0.9057,-0.9056,-0.9006,-0.9006,-0.9005,-0.9005,-0.8935,-0.8934,-0.8932,0,0,0,0,0,0,0,0,0,0,0,0,0,-0.9157,-0.9202,-0.9124,-0.909,-0.9086,-0.9058,-0.9057,-0.9056,-0.9007,-0.9006,-0.9005,-0.9005,-0.8936,-0.8934,-0.8932,-0.8932,0,0,-0.8925,-0.8924,0,0,0,0,0,0,0,0,-0.916,-0.9154,-0.9095,-0.9092,-0.9088,-0.904,-0.906,-0.9014,-0.9007,-0.9037,-0.9005,-0.9004,-0.897,-0.8965,-0.8954,-0.8928,-0.8925,-0.8925,-0.8923,-0.8922,-0.8922,0,0,0,0,0,0,0,-0.9163,-0.9156,-0.9097,-0.9095,-0.909,-0.9077,-0.9069,-0.9051,-0.9008,-0.9034,-0.903,-0.9023,-0.8968,-0.8956,-0.8952,-0.8924,-0.8925,-0.8923,-0.8921,-0.8921,-0.8895,-0.8896,0,0,0,0,0,0,-0.9172,-0.9159,-0.91,-0.9095,-0.9123,-0.9076,-0.9068,-0.9056,-0.9008,-0.9,-0.9024,-0.9021,-0.896,-0.8955,-0.8949,-0.8946,-0.8922,-0.892,-0.8919,-0.8894,-0.8895,-0.8896,0,0,0,0,0,0,-0.9174,-0.9167,-0.9102,-0.9126,-0.9117,-0.9075,-0.9062,-0.9055,-0.9043,-0.9,-0.8992,-0.902,-0.896,-0.8952,-0.8937,-0.8943,-0.8919,-0.8917,-0.8894,-0.8895,-0.8896,-0.8939,0,0,0,0,0,0,-0.9176,-0.9168,-0.9168,-0.9127,-0.9116,-0.9091,-0.9063,-0.9054,-0.904,-0.9036,-0.8995,-0.8987,-0.8958,-0.894,-0.8934,-0.8939,-0.8916,-0.8893,-0.8894,-0.8895,-0.8937,-0.8941,-0.8945,0,0,0,0,0,-0.9179,-0.9182,-0.9168,-0.9161,-0.9115,-0.9092,-0.9085,-0.9053,-0.9041,-0.904,-0.9013,-0.8988,-0.8943,-0.8939,-0.8932,-0.8936,-0.8892,-0.8894,-0.8895,-0.8935,-0.894,-0.8945,0,0,0,0,0,0,-0.9223,-0.9176,-0.916,-0.915,-0.9125,-0.9083,-0.9081,-0.906,-0.9038,-0.9035,-0.8995,-0.8986,-0.8974,-0.8954,-0.895,-0.8934,-0.8915,-0.8915,-0.8947,-0.8952,-0.8956,-0.8961,-0.8914,0,0,0,0,0,-0.9232,-0.9218,-0.9177,-0.9172,-0.9161,-0.9123,-0.9112,-0.9089,-0.9062,-0.9051,-0.9022,-0.8996,-0.8976,-0.8963,-0.8942,-0.8934,-0.8924,-0.8934,-0.8938,-0.8942,-0.8942,-0.8936,-0.8939,-0.8901,-0.8901,-0.8901,0,0,-0.925,-0.9222,-0.9215,-0.918,-0.9158,-0.9144,-0.9115,-0.91,-0.9088,-0.9048,-0.9031,-0.901,-0.8978,-0.8966,-0.8959,-0.8949,-0.8951,-0.8944,-0.8947,-0.8945,-0.8938,-0.8941,-0.8945,-0.8902,-0.8901,-0.8901,0,0,-0.9274,-0.9252,-0.9245,-0.9225,-0.9193,-0.9168,-0.9167,-0.9128,-0.9113,-0.9096,-0.9065,-0.9051,-0.9017,-0.8995,-0.898,-0.8998,-0.8975,-0.8992,-0.9013,-0.9008,-0.9011,-0.9014,-0.9019,-0.9022,-0.8993,-0.8993,-0.8993,0,-0.9299,-0.9276,-0.9244,-0.9232,-0.9217,-0.9182,-0.9174,-0.9155,-0.9118,-0.9108,-0.9097,-0.9055,-0.903,-0.9013,-0.9018,-0.9007,-0.9003,-0.8996,-0.9013,-0.9016,-0.9017,-0.9022,-0.9024,-0.8995,-0.8995,-0.8995,-0.8994,0,-0.9308,-0.9293,-0.9292,-0.9258,-0.9243,-0.9233,-0.9199,-0.9188,-0.9167,-0.9144,-0.9127,-0.9097,-0.907,-0.9064,-0.9043,-0.9044,-0.9038,-0.9021,-0.9001,-0.9024,-0.9028,-0.9029,-0.8998,-0.8997,-0.8997,-0.8996,0,0,-0.9356,-0.9306,-0.9306,-0.929,-0.9253,-0.9241,-0.9229,-0.9204,-0.9194,-0.9171,-0.9159,-0.9132,-0.9117,-0.9099,-0.9076,-0.9072,-0.9087,-0.9055,-0.9053,-0.9061,-0.9085,-0.9097,-0.91,-0.9072,-0.9072,-0.9073,-0.9087,0,-0.9373,-0.9352,-0.9323,-0.9311,-0.9296,-0.9263,-0.9253,-0.9229,-0.9208,-0.9191,-0.9167,-0.9148,-0.9129,-0.9119,-0.9113,-0.9086,-0.9091,-0.9085,-0.906,-0.906,-0.9068,-0.9102,-0.9114,-0.9129,-0.9089,-0.9089,-0.9089,0,-0.939,-0.9369,-0.9356,-0.9321,-0.9313,-0.9305,-0.9279,-0.9265,-0.9237,-0.9221,-0.9203,-0.9179,-0.9164,-0.9148,-0.9127,-0.9124,-0.9112,-0.9098,-0.9098,-0.9093,-0.9075,-0.9096,-0.9133,-0.9135,-0.9091,-0.9091,-0.9091,0,-0.9425,-0.9393,-0.9381,-0.9369,-0.9328,-0.9323,-0.9306,-0.9277,-0.9264,-0.9242,-0.9232,-0.9209,-0.9195,-0.9177,-0.9146,-0.9137,-0.9129,-0.911,-0.9115,-0.9116,-0.9113,-0.9113,-0.9147,-0.9108,-0.9108,-0.9108,-0.9108,0,-0.9446,-0.9439,-0.9396,-0.9389,-0.938,-0.9347,-0.9339,-0.9318,-0.9294,-0.9281,-0.9252,-0.924,-0.9201,-0.9185,-0.9162,-0.9148,-0.9142,-0.9129,-0.9122,-0.913,-0.9132,-0.9121,-0.9118,-0.9109,-0.9109,-0.9108,-0.9108,0,-0.9483,-0.9454,-0.9439,-0.9402,-0.9393,-0.9388,-0.9356,-0.9347,-0.9324,-0.9309,-0.9303,-0.9267,-0.9247,-0.9215,-0.9185,-0.9169,-0.9159,-0.9149,-0.9169,-0.9165,-0.9171,-0.917,-0.9198,-0.9199,-0.9161,-0.9162,-0.9162,0,-0.9497,-0.9491,-0.9454,-0.9444,-0.9428,-0.9412,-0.9399,-0.9367,-0.9354,-0.9323,-0.9318,-0.9296,-0.9276,-0.9245,-0.9216,-0.9193,-0.9181,-0.9193,-0.9177,-0.9186,-0.918,-0.918,-0.9179,-0.9196,-0.9196,-0.9197,-0.9197,0,-0.9526,-0.9512,-0.9495,-0.9473,-0.9458,-0.9439,-0.9418,-0.9411,-0.9374,-0.9362,-0.9341,-0.9326,-0.9296,-0.9274,-0.9248,-0.9229,-0.9206,-0.9203,-0.9202,-0.921,-0.9221,-0.9214,-0.9177,-0.9201,-0.9201,-0.9201,-0.92,-0.92,-0.955,-0.9544,-0.9517,-0.9499,-0.948,-0.9462,-0.9452,-0.9429,-0.9411,-0.9385,-0.9368,-0.9348,-0.9321,-0.9283,-0.9266,-0.925,-0.924,-0.924,-0.9239,-0.9239,-0.9242,-0.9225,-0.9245,-0.9245,-0.9245,-0.9244,-0.9244,0,-0.9576,-0.9558,-0.9542,-0.9514,-0.95,-0.9483,-0.9459,-0.9447,-0.9431,-0.9408,-0.939,-0.9367,-0.9346,-0.9316,-0.9292,-0.9285,-0.9274,-0.928,-0.9279,-0.9275,-0.9253,-0.9255,-0.9289,-0.9289,-0.9289,-0.9289,-0.9289,-0.9289,-0.9588,-0.9575,-0.9559,-0.9537,-0.9519,-0.95,-0.9488,-0.9471,-0.9453,-0.9428,-0.9411,-0.9392,-0.9367,-0.9341,-0.9321,-0.9313,-0.9305,-0.9313,-0.9302,-0.9281,-0.9277,-0.9273,-0.9275,-0.9312,-0.9312,-0.9325,-0.9326,-0.9326]},{"header":{"parameterUnit":"m.s-1","parameterCategory":1,"la1":30.2991,"la2":30.254,"lo1":-89.0895,"lo2":-89.0444,"dy":0.0017,"dx":0.0017,"nx":28,"ny":28,"refTime":"2024-08-15T09:00:00:Z","depth":0,"parameterNumber":3,"parameterNumberName":"V-component_of_WINDS"},"data":[0,0,0,0,0,0,0,0,0,0,0,0,0,0,0,0,0,0,0,0,0,0,0,0,0,0,0,0,0,0,0,0,0,0,0,0,0,0,0,0,0,0,0,0,0,0,0,0,0,0,0,0,0,0,0,0,0,0,-0.0139,-0.0138,0,-0.0074,-0.0073,-0.0072,-0.0062,-0.0063,-0.0063,-0.0064,0.0001,0.0003,0.0005,0,0,0,0,0,0,0,0,0,0,0,0,0,-0.026,-0.0258,-0.0139,-0.0138,-0.0137,-0.0074,-0.0073,-0.0072,-0.0062,-0.0063,-0.0064,-0.0064,0.0,0.0003,0.0005,0,0,0,0,0,0,0,0,0,0,0,0,0,-0.0203,-0.0258,-0.0139,-0.0125,-0.0123,-0.0074,-0.0073,-0.0072,-0.0062,-0.0063,-0.0064,-0.0065,-0.0001,0.0002,0.0006,0.0044,0,0,0.0016,0.0018,0,0,0,0,0,0,0,0,-0.0206,-0.0198,-0.0128,-0.0126,-0.0123,-0.0077,-0.0092,-0.0033,-0.0062,-0.0085,-0.0064,-0.0065,-0.0025,-0.0019,-0.0005,0.0047,0.005,0.0016,0.0019,0.002,0.0021,0,0,0,0,0,0,0,-0.021,-0.0201,-0.0113,-0.0127,-0.0124,-0.0123,-0.0116,-0.0081,-0.0051,-0.0083,-0.0082,-0.0075,-0.0024,-0.0008,-0.0004,0.0051,0.0016,0.0019,0.0021,0.0023,0.0134,0.0135,0,0,0,0,0,0,-0.0216,-0.0204,-0.0115,-0.0111,-0.0168,-0.012,-0.0112,-0.0091,-0.0051,-0.0046,-0.0074,-0.0074,-0.0014,-0.0008,-0.0001,0.0044,0.002,0.0023,0.0025,0.0133,0.0134,0.0135,0,0,0,0,0,0,-0.0219,-0.0208,-0.0118,-0.0158,-0.0146,-0.0117,-0.0094,-0.0089,-0.0074,-0.0044,-0.0039,-0.0064,-0.0014,-0.0006,0.0032,0.0046,0.0025,0.0028,0.0132,0.0133,0.0135,0.0136,0,0,0,0,0,0,-0.0222,-0.0209,-0.0193,-0.0157,-0.0144,-0.0084,-0.0093,-0.0087,-0.0068,-0.0068,-0.0033,-0.0028,-0.0014,0.0027,0.0035,0.0051,0.003,0.0131,0.0133,0.0134,0.0135,0.0137,0.0139,0,0,0,0,0,-0.0227,-0.0195,-0.0192,-0.0181,-0.0123,-0.0083,-0.0076,-0.006,-0.0067,-0.0051,-0.0033,-0.0029,0.0043,0.0031,0.0041,0.0057,0.013,0.0132,0.0134,0.0134,0.0137,0.0139,0,0,0,0,0,0,-0.0229,-0.019,-0.0186,-0.0142,-0.0116,-0.0082,-0.0061,-0.0057,-0.0029,-0.003,-0.0012,-0.0004,0.0032,0.0048,0.0034,0.0094,0.0086,0.009,0.0082,0.0085,0.0088,0.0083,0.0033,0,0,0,0,0,-0.0225,-0.0195,-0.0162,-0.0126,-0.0114,-0.009,-0.0072,-0.0062,-0.0035,-0.0024,-0.0003,0.0023,0.0051,0.0069,0.0097,0.0137,0.0143,0.0153,0.0155,0.0157,0.016,0.0179,0.0183,0.0142,0.0142,0.0142,0,0,-0.0215,-0.019,-0.0172,-0.0126,-0.0105,-0.0077,-0.0081,-0.0049,-0.0028,-0.002,0.0017,0.0034,0.0063,0.0101,0.0119,0.0116,0.0172,0.0159,0.016,0.0163,0.0181,0.0185,0.0189,0.0143,0.0143,0.0143,0,0,-0.0183,-0.0159,-0.0128,-0.0108,-0.0076,-0.0061,-0.0054,-0.0021,-0.001,0.0028,0.0034,0.0058,0.0107,0.0127,0.0143,0.0179,0.0182,0.0187,0.0199,0.0217,0.022,0.0223,0.0234,0.0238,0.019,0.019,0.019,0,-0.0175,-0.013,-0.0113,-0.0083,-0.0064,-0.0056,-0.0026,-0.0006,0.0032,0.0044,0.004,0.0099,0.012,0.0161,0.017,0.0183,0.019,0.0183,0.0219,0.0222,0.0225,0.0235,0.0239,0.019,0.019,0.019,0.019,0,-0.0123,-0.0093,-0.0072,-0.0035,-0.0014,0.0016,0.0035,0.0054,0.0061,0.0076,0.0112,0.0136,0.0168,0.0178,0.0186,0.022,0.0217,0.0215,0.0207,0.0229,0.0238,0.0243,0.0191,0.0191,0.0191,0.0191,0,0,-0.0089,-0.0046,-0.0038,-0.0023,0.0011,0.0034,0.0063,0.0094,0.0109,0.0134,0.0158,0.0197,0.0195,0.0214,0.0223,0.024,0.0263,0.0236,0.0237,0.0239,0.0299,0.0299,0.0303,0.0265,0.0266,0.0267,0.0296,0,-0.0055,-0.0001,0.0013,0.0057,0.0084,0.0091,0.0116,0.0138,0.0152,0.0175,0.019,0.0217,0.0213,0.0224,0.0241,0.0257,0.0275,0.0255,0.0285,0.0286,0.0277,0.0309,0.0309,0.0336,0.03,0.03,0.0301,0,-0.0006,0.0019,0.0066,0.0094,0.0106,0.0128,0.0155,0.0179,0.0203,0.0211,0.023,0.0238,0.0265,0.0256,0.0293,0.0279,0.0292,0.0301,0.0302,0.0305,0.0294,0.0311,0.0345,0.0348,0.0307,0.0307,0.0306,0,0.0011,0.0057,0.0091,0.0104,0.0138,0.0152,0.0167,0.0191,0.0207,0.0231,0.0241,0.0268,0.0282,0.0301,0.0315,0.0307,0.035,0.0342,0.0356,0.0356,0.0365,0.0364,0.04,0.0375,0.0375,0.0375,0.0375,0,0.0047,0.0075,0.0098,0.0119,0.0149,0.0164,0.0193,0.0207,0.0228,0.0249,0.0257,0.0277,0.0294,0.0315,0.0326,0.0354,0.036,0.0367,0.0369,0.0365,0.0364,0.0374,0.0372,0.0376,0.0375,0.0375,0.0375,0,0.0072,0.0089,0.0125,0.0153,0.0161,0.0182,0.0205,0.0224,0.0237,0.0264,0.0271,0.0291,0.0317,0.0332,0.0364,0.0371,0.0401,0.0403,0.0393,0.0394,0.0406,0.0404,0.0449,0.0454,0.0427,0.0427,0.0427,0,0.0093,0.0115,0.0145,0.016,0.0175,0.0199,0.0216,0.023,0.0247,0.0274,0.0289,0.0315,0.0336,0.0376,0.0393,0.0417,0.0419,0.0432,0.0422,0.0417,0.0417,0.0415,0.0416,0.0434,0.0434,0.0434,0.0435,0,0.0129,0.0136,0.016,0.0186,0.0205,0.0227,0.0248,0.0259,0.0277,0.0295,0.0321,0.0337,0.0369,0.0394,0.0419,0.0432,0.0435,0.0437,0.0442,0.0438,0.0431,0.0433,0.0396,0.0436,0.0436,0.0436,0.0436,0.0436,0.0152,0.017,0.0193,0.0219,0.0236,0.0255,0.0273,0.0288,0.031,0.0337,0.0344,0.0371,0.0391,0.0425,0.0438,0.0458,0.0456,0.0462,0.0464,0.0465,0.0464,0.0428,0.0463,0.0463,0.0463,0.0463,0.0463,0,0.0186,0.0201,0.0225,0.0253,0.0272,0.0274,0.0297,0.0312,0.0336,0.0355,0.0376,0.0404,0.0427,0.0445,0.0468,0.0481,0.0482,0.0486,0.0485,0.0487,0.0466,0.0459,0.0484,0.0484,0.0484,0.0484,0.0484,0.0484,0.0207,0.0237,0.0245,0.0283,0.0297,0.0324,0.0336,0.0352,0.0368,0.0399,0.0418,0.043,0.0448,0.0472,0.0492,0.0497,0.0504,0.0507,0.0512,0.0491,0.0489,0.0487,0.0481,0.0509,0.0509,0.0531,0.0531,0.0531]}]]